{"data":{"norad_id":54008,"epoch":"2026-05-24T21:40:31.740096Z","epoch_age_seconds":87348,"freshness":"FRESH","line1":"1 54008U 22125AW  26144.90314514 -.00000332  00000+0 -27883-5 0  9995","line2":"2 54008  53.2143 221.6274 0001025  79.9230 280.1877 15.08835143201115","mean_motion":15.08835143,"eccentricity":0.0001025,"inclination_deg":53.2143,"raan_deg":221.6274,"arg_perigee_deg":79.923,"mean_anomaly_deg":280.1877,"bstar":-2.7883e-6,"rev_number":20111,"period_min":95.437861895029,"perigee_km":539.04915064828,"apogee_km":540.46731917143,"semimajor_km":6917.8952349099,"source":"CELESTRAK","updated_at":"2026-05-25T13:38:17.625670Z"}}